Погода в Сан-Луис-Потоси

Мексика     22°08′25″N   100°57′37″W
темп.,
°C
ветер,
м/с
пор.,
м/с
влажн.,
%
обл.,
%
осадки,
мм/ч
давл.,
гПа
погр.,
м
20 января, ср
ср2000:00+13в357880 0.3 1021516
03:00+12в457997 0.0 1022586
06:00+12в698099 0.1 1022779
09:00+13вюв41076100 0.0 1024848
12:00+16вюв7967100 0.1 10221055
15:00+16вюв61064100 0.1 10191164
18:00+15в4573100 0.2 1019622
21:00+14в4780100 0.0 1022680
21 января, чт
чт2100:00+12юв2489100 0.1 1023203
03:00+12юв348789 0.0 1022302
06:00+11ююв128893 0.0 1021116
09:00+14ююв237818 0.0 1021326
12:00+20ююз36469 0.0 10181415
15:00+24зюз88270 0.0 10132425
18:00+22з68330 0.0 10131190
21:00+19з47400 0.0 1017240
22 января, пт
пт2200:00+15з23510 0.0 1018182
03:00+13юз12590 0.0 101739
06:00+12юз22620 0.0 101849
09:00+16зюз22525 0.0 1019162
12:00+21зюз352736 0.0 10161334
15:00+24зюз46190 0.0 10122380
18:00+23з45226 0.0 10111045
21:00+19юз35290 0.0 1015130
23 января, сб
сб2300:00+16ююв12400 0.0 101630
03:00+14ююз01480 0.0 101623
06:00+13сз00522 0.0 101623
09:00+17юз113874 0.0 101897
12:00+22юз242650 0.0 10151364
15:00+25юз45186 0.0 10113073
18:00+24зюз452117 0.0 10111120
21:00+19в124388 0.0 101463
24 января, вс
вс2400:00+17ю225062 0.0 101553
03:00+16зюз12420 0.0 101424
06:00+14зюз22390 0.0 101526
09:00+18зюз23320 0.0 1016198
12:00+23зюз45250 0.0 10141551
15:00+25юз56204 0.0 10092932
18:00+24зюз672311 0.0 10091145
21:00+19зюз5112520 0.0 1012446